QPF
0.01 0.00 0.01 0.01 0.00 0.01 0.01 0.02 0.01 0.01 0.01 0.00 0.00 0.00 0.00 0.00 0.00 0.00 0.00 0.00 0.00 0.00 0.00 0.00 0.00 0.00 0.00 0.00 0.00 0.00 0.00 0.00 0.00 0.00 0.00 0.00 0.00 0.00 0.00 0.00 0.00 0.00 0.00 0.00
0.01 0.01 0.00 0.00 0.00 0.00 0.00 0.00 0.00 0.00 0.00 0.00 0.00 0.00 0.00 0.00 0.00 0.00 0.00 0.00 0.00 0.00 0.00 0.00 0.00 0.00 0.00 0.00 0.00 0.00 0.00 0.00 0.00 0.00 0.00 0.00 0.00 0.00 0.00 0.00 0.00 0.00 0.00 0.00
0.02 0.01 0.02 0.02 0.01 0.01 0.01 0.00 0.00 0.00 0.00 0.00 0.00 0.00 0.00 0.00 0.00 0.00 0.00 0.00 0.00 0.00 0.00 0.00 0.00 0.00 0.00 0.00 0.00 0.00 0.00 0.00 0.00 0.00 0.00 0.00 0.00 0.00 0.00 0.00 0.00 0.00 0.00 0.00
0.03 0.03 0.05 0.03 0.01 0.01 0.00 0.01 0.00 0.00 0.00 0.00 0.00 0.00 0.00 0.00 0.00 0.00 0.00 0.00 0.00 0.00 0.00 0.00 0.00 0.00 0.00 0.00 0.00 0.00 0.00 0.00 0.00 0.00 0.00 0.00 0.00 0.00 0.00 0.00 0.00 0.00 0.00 0.00
0.05 0.05 0.05 0.02 0.01 0.01 0.01 0.01 0.00 0.00 0.00 0.00 0.00 0.00 0.00 0.00 0.00 0.00 0.00 0.00 0.00 0.00 0.00 0.00 0.00 0.00 0.00 0.00 0.00 0.00 0.00 0.00 0.00 0.00 0.00 0.00 0.00 0.00 0.00 0.00 0.00 0.00 0.00 0.00
0.06 0.05 0.05 0.03 0.01 0.01 0.01 0.02 0.01 0.00 0.00 0.00 0.00 0.00 0.00 0.00 0.00 0.00 0.00 0.00 0.00 0.00 0.00 0.00 0.00 0.00 0.00 0.00 0.00 0.00 0.00 0.00 0.00 0.00 0.00 0.00 0.00 0.00 0.00 0.00 0.00 0.00 0.00 0.01
0.05 0.05 0.03 0.01 0.01 0.01 0.03 0.03 0.01 0.00 0.00 0.00 0.01 0.00 0.00 0.00 0.00 0.00 0.00 0.00 0.00 0.00 0.00 0.00 0.00 0.00 0.00 0.00 0.00 0.00 0.00 0.00 0.00 0.00 0.00 0.00 0.00 0.00 0.00 0.00 0.00 0.00 0.00 0.00
0.03 0.04 0.03 0.01 0.01 0.02 0.03 0.01 0.01 0.01 0.01 0.01 0.01 0.00 0.00 0.00 0.00 0.00 0.00 0.00 0.00 0.00 0.00 0.00 0.00 0.00 0.00 0.00 0.00 0.00 0.00 0.00 0.00 0.00 0.00 0.00 0.00 0.00 0.00 0.00 0.00 0.00 0.00 0.00
0.03 0.03 0.02 0.01 0.01 0.01 0.01 0.02 0.02 0.01 0.01 0.01 0.01 0.01 0.01 0.00 0.00 0.00 0.00 0.00 0.00 0.00 0.00 0.00 0.00 0.00 0.00 0.00 0.00 0.00 0.00 0.00 0.00 0.00 0.00 0.00 0.00 0.00 0.00 0.00 0.00 0.00 0.01 0.01
0.02 0.01 0.01 0.01 0.00 0.00 0.01 0.02 0.02 0.01 0.01 0.01 0.01 0.01 0.01 0.01 0.00 0.00 0.00 0.00 0.00 0.00 0.00 0.00 0.00 0.00 0.00 0.00 0.00 0.00 0.00 0.00 0.00 0.00 0.00 0.00 0.00 0.00 0.00 0.00 0.01 0.01 0.01 0.01
0.01 0.01 0.01 0.00 0.00 0.00 0.01 0.01 0.01 0.01 0.01 0.01 0.01 0.01 0.00 0.00 0.00 0.00 0.00 0.00 0.00 0.00 0.00 0.00 0.00 0.00 0.00 0.00 0.00 0.00 0.00 0.00 0.00 0.00 0.00 0.00 0.00 0.00 0.00 0.01 0.02 0.02 0.03 0.03
0.02 0.01 0.01 0.01 0.01 0.01 0.00 0.01 0.01 0.00 0.01 0.01 0.01 0.00 0.00 0.00 0.00 0.00 0.00 0.00 0.00 0.00 0.00 0.00 0.00 0.00 0.00 0.00 0.00 0.00 0.00 0.00 0.00 0.00 0.00 0.00 0.00 0.00 0.00 0.01 0.02 0.02 0.02 0.03
0.01 0.01 0.01 0.01 0.02 0.01 0.00 0.00 0.00 0.00 0.01 0.01 0.01 0.01 0.01 0.00 0.00 0.00 0.00 0.00 0.00 0.00 0.00 0.00 0.00 0.00 0.00 0.00 0.00 0.00 0.00 0.00 0.00 0.00 0.00 0.00 0.00 0.00 0.00 0.01 0.01 0.02 0.02 0.02
0.01 0.01 0.02 0.02 0.01 0.00 0.00 0.01 0.01 0.01 0.01 0.00 0.00 0.00 0.00 0.00 0.00 0.00 0.00 0.00 0.00 0.00 0.00 0.00 0.00 0.00 0.00 0.00 0.00 0.00 0.00 0.00 0.01 0.01 0.00 0.00 0.00 0.00 0.01 0.01 0.01 0.01 0.02 0.03
0.01 0.01 0.02 0.02 0.00 0.00 0.00 0.00 0.01 0.01 0.01 0.01 0.00 0.00 0.00 0.00 0.00 0.00 0.00 0.00 0.00 0.00 0.00 0.00 0.00 0.00 0.00 0.00 0.00 0.01 0.01 0.01 0.01 0.00 0.00 0.00 0.00 0.01 0.01 0.01 0.01 0.01 0.01 0.02
0.00 0.01 0.02 0.01 0.01 0.00 0.01 0.01 0.01 0.01 0.01 0.01 0.00 0.00 0.00 0.00 0.00 0.00 0.00 0.00 0.00 0.00 0.00 0.00 0.00 0.00 0.00 0.00 0.00 0.01 0.01 0.01 0.01 0.01 0.01 0.01 0.01 0.01 0.01 0.01 0.01 0.02 0.01 0.02
0.01 0.01 0.02 0.01 0.01 0.01 0.01 0.01 0.01 0.01 0.01 0.01 0.01 0.00 0.00 0.00 0.00 0.00 0.00 0.00 0.00 0.00 0.00 0.00 0.00 0.00 0.00 0.00 0.01 0.01 0.01 0.01 0.01 0.01 0.01 0.01 0.01 0.01 0.01 0.01 0.01 0.01 0.02 0.02
0.01 0.01 0.01 0.01 0.01 0.01 0.00 0.01 0.01 0.00 0.01 0.01 0.01 0.01 0.01 0.00 0.00 0.00 0.00 0.00 0.00 0.00 0.00 0.00 0.00 0.00 0.00 0.00 0.01 0.01 0.01 0.01 0.01 0.01 0.01 0.01 0.01 0.01 0.01 0.01 0.01 0.01 0.02 0.02
0.01 0.01 0.01 0.01 0.01 0.01 0.00 0.00 0.00 0.00 0.00 0.01 0.01 0.02 0.01 0.01 0.00 0.00 0.00 0.00 0.00 0.00 0.00 0.00 0.00 0.00 0.00 0.00 0.01 0.01 0.01 0.01 0.01 0.01 0.01 0.01 0.01 0.01 0.01 0.01 0.01 0.02 0.02 0.02
0.01 0.01 0.01 0.01 0.01 0.01 0.00 0.00 0.00 0.00 0.00 0.00 0.01 0.02 0.01 0.01 0.01 0.01 0.00 0.00 0.00 0.00 0.00 0.00 0.00 0.00 0.00 0.00 0.01 0.01 0.01 0.01 0.01 0.01 0.01 0.01 0.01 0.01 0.01 0.01 0.02 0.02 0.02 0.02
0.01 0.01 0.01 0.01 0.01 0.01 0.01 0.00 0.00 0.00 0.00 0.00 0.01 0.01 0.02 0.02 0.01 0.01 0.01 0.00 0.00 0.00 0.00 0.00 0.01 0.01 0.01 0.01 0.01 0.01 0.01 0.01 0.01 0.01 0.01 0.02 0.02 0.02 0.02 0.02 0.02 0.02 0.02 0.02
0.01 0.01 0.01 0.01 0.01 0.01 0.01 0.01 0.01 0.01 0.00 0.00 0.00 0.01 0.02 0.02 0.02 0.01 0.01 0.00 0.00 0.00 0.01 0.01 0.01 0.01 0.01 0.01 0.01 0.01 0.01 0.01 0.01 0.01 0.02 0.02 0.02 0.02 0.02 0.02 0.02 0.02 0.02 0.02
0.01 0.01 0.01 0.01 0.01 0.01 0.00 0.01 0.01 0.01 0.01 0.01 0.01 0.01 0.01 0.01 0.02 0.02 0.01 0.01 0.00 0.01 0.01 0.01 0.01 0.01 0.01 0.01 0.01 0.01 0.01 0.01 0.01 0.01 0.01 0.02 0.02 0.02 0.02 0.02 0.02 0.02 0.02 0.02
0.01 0.01 0.01 0.01 0.01 0.00 0.00 0.00 0.00 0.01 0.01 0.01 0.00 0.01 0.01 0.01 0.01 0.02 0.02 0.01 0.01 0.01 0.01 0.01 0.01 0.02 0.02 0.01 0.01 0.01 0.01 0.01 0.01 0.01 0.01 0.01 0.02 0.02 0.02 0.01 0.01 0.01 0.02 0.02
0.01 0.01 0.01 0.01 0.01 0.01 0.01 0.00 0.00 0.00 0.00 0.00 0.00 0.00 0.01 0.01 0.01 0.01 0.02 0.01 0.01 0.02 0.01 0.01 0.01 0.01 0.01 0.01 0.01 0.01 0.01 0.01 0.01 0.01 0.01 0.01 0.01 0.02 0.01 0.01 0.01 0.01 0.02 0.02
0.01 0.01 0.01 0.01 0.01 0.01 0.01 0.01 0.01 0.01 0.01 0.01 0.01 0.01 0.01 0.01 0.01 0.01 0.02 0.02 0.02 0.02 0.01 0.01 0.01 0.01 0.01 0.01 0.01 0.01 0.01 0.01 0.01 0.01 0.01 0.01 0.01 0.01 0.01 0.01 0.01 0.02 0.02 0.02
0.01 0.01 0.01 0.01 0.01 0.01 0.01 0.01 0.01 0.01 0.01 0.01 0.01 0.01 0.01 0.01 0.01 0.02 0.02 0.02 0.01 0.01 0.01 0.01 0.01 0.01 0.01 0.01 0.01 0.01 0.01 0.01 0.01 0.01 0.01 0.01 0.01 0.01 0.01 0.01 0.01 0.02 0.02 0.02
MSLP
1001.77 1001.45 1001.25 1001.16 1001.16 1001.24 1001.38 1001.55 1001.76 1002.00 1002.26 1002.56 1002.90 1003.28 1003.68 1004.10 1004.51 1004.88 1005.20 1005.45 1005.63 1005.74 1005.81 1005.86 1005.93 1006.04 1006.24 1006.53 1006.93 1007.42 1008.01 1008.67 1009.38 1010.12 1010.88 1011.64 1012.40 1013.16 1013.90 1014.62 1015.32 1015.98 1016.59 1017.14
1002.20 1001.78 1001.49 1001.33 1001.29 1001.36 1001.53 1001.79 1002.12 1002.51 1002.96 1003.46 1003.99 1004.53 1005.07 1005.57 1006.02 1006.40 1006.68 1006.87 1006.95 1006.97 1006.93 1006.87 1006.84 1006.85 1006.95 1007.14 1007.44 1007.85 1008.34 1008.91 1009.53 1010.19 1010.87 1011.56 1012.25 1012.94 1013.62 1014.30 1014.95 1015.57 1016.15 1016.68
1002.75 1002.32 1002.03 1001.88 1001.87 1001.98 1002.21 1002.54 1002.97 1003.47 1004.03 1004.64 1005.27 1005.90 1006.51 1007.05 1007.52 1007.89 1008.15 1008.29 1008.34 1008.29 1008.20 1008.08 1007.98 1007.92 1007.94 1008.05 1008.26 1008.57 1008.96 1009.43 1009.95 1010.50 1011.09 1011.68 1012.29 1012.89 1013.50 1014.10 1014.68 1015.24 1015.76 1016.23
1003.35 1003.02 1002.82 1002.75 1002.82 1003.01 1003.31 1003.71 1004.20 1004.75 1005.36 1006.00 1006.65 1007.29 1007.89 1008.43 1008.89 1009.25 1009.49 1009.63 1009.66 1009.61 1009.50 1009.37 1009.24 1009.15 1009.12 1009.16 1009.30 1009.51 1009.80 1010.16 1010.57 1011.02 1011.50 1011.99 1012.50 1013.01 1013.52 1014.02 1014.51 1014.99 1015.43 1015.82
1004.00 1003.81 1003.75 1003.83 1004.02 1004.31 1004.69 1005.14 1005.64 1006.20 1006.78 1007.38 1007.99 1008.57 1009.13 1009.62 1010.05 1010.39 1010.63 1010.78 1010.83 1010.81 1010.72 1010.61 1010.49 1010.39 1010.33 1010.33 1010.40 1010.54 1010.74 1011.00 1011.31 1011.66 1012.03 1012.43 1012.83 1013.23 1013.64 1014.04 1014.43 1014.80 1015.14 1015.45
1004.67 1004.67 1004.79 1005.02 1005.34 1005.74 1006.18 1006.65 1007.15 1007.66 1008.17 1008.69 1009.20 1009.69 1010.15 1010.59 1010.96 1011.28 1011.52 1011.69 1011.77 1011.79 1011.75 1011.67 1011.58 1011.49 1011.42 1011.39 1011.41 1011.49 1011.62 1011.80 1012.03 1012.29 1012.57 1012.87 1013.17 1013.48 1013.78 1014.08 1014.36 1014.63 1014.87 1015.09
1005.42 1005.60 1005.89 1006.27 1006.71 1007.19 1007.67 1008.15 1008.60 1009.04 1009.45 1009.85 1010.23 1010.61 1010.97 1011.31 1011.63 1011.92 1012.15 1012.33 1012.45 1012.51 1012.51 1012.47 1012.41 1012.33 1012.26 1012.21 1012.20 1012.24 1012.31 1012.44 1012.60 1012.79 1012.99 1013.21 1013.43 1013.65 1013.86 1014.06 1014.24 1014.41 1014.57 1014.70
1006.30 1006.63 1007.06 1007.56 1008.09 1008.62 1009.11 1009.55 1009.94 1010.28 1010.57 1010.84 1011.09 1011.34 1011.59 1011.85 1012.10 1012.34 1012.56 1012.74 1012.87 1012.95 1012.98 1012.96 1012.91 1012.84 1012.77 1012.71 1012.68 1012.69 1012.73 1012.81 1012.92 1013.06 1013.21 1013.37 1013.52 1013.66 1013.79 1013.90 1014.00 1014.09 1014.18 1014.25
1007.35 1007.80 1008.33 1008.90 1009.47 1010.00 1010.46 1010.84 1011.14 1011.37 1011.55 1011.69 1011.81 1011.94 1012.08 1012.25 1012.43 1012.62 1012.79 1012.95 1013.07 1013.15 1013.17 1013.15 1013.10 1013.02 1012.94 1012.87 1012.82 1012.81 1012.83 1012.89 1012.97 1013.07 1013.19 1013.29 1013.39 1013.47 1013.53 1013.57 1013.60 1013.63 1013.66 1013.70
1008.62 1009.14 1009.72 1010.30 1010.85 1011.34 1011.73 1012.03 1012.22 1012.34 1012.39 1012.41 1012.43 1012.45 1012.49 1012.57 1012.67 1012.79 1012.92 1013.03 1013.10 1013.14 1013.14 1013.09 1013.01 1012.91 1012.81 1012.72 1012.66 1012.63 1012.64 1012.69 1012.76 1012.84 1012.92 1012.99 1013.04 1013.06 1013.07 1013.06 1013.04 1013.03 1013.02 1013.04
1010.08 1010.63 1011.19 1011.73 1012.22 1012.62 1012.91 1013.10 1013.19 1013.19 1013.14 1013.05 1012.96 1012.89 1012.85 1012.84 1012.87 1012.91 1012.97 1013.01 1013.02 1012.99 1012.93 1012.83 1012.71 1012.58 1012.45 1012.35 1012.27 1012.24 1012.25 1012.29 1012.35 1012.41 1012.47 1012.51 1012.52 1012.50 1012.46 1012.41 1012.35 1012.31 1012.29 1012.30
1011.66 1012.18 1012.68 1013.14 1013.52 1013.80 1013.97 1014.04 1014.01 1013.91 1013.76 1013.59 1013.41 1013.27 1013.15 1013.07 1013.02 1012.99 1012.96 1012.91 1012.85 1012.75 1012.61 1012.46 1012.28 1012.11 1011.96 1011.84 1011.76 1011.73 1011.74 1011.78 1011.83 1011.88 1011.92 1011.93 1011.91 1011.85 1011.77 1011.68 1011.60 1011.53 1011.51 1011.52
1013.20 1013.66 1014.08 1014.42 1014.67 1014.81 1014.85 1014.79 1014.65 1014.46 1014.23 1013.98 1013.75 1013.54 1013.37 1013.22 1013.10 1012.99 1012.87 1012.75 1012.59 1012.42 1012.22 1012.00 1011.79 1011.59 1011.41 1011.29 1011.21 1011.18 1011.19 1011.23 1011.28 1011.32 1011.34 1011.33 1011.28 1011.19 1011.08 1010.96 1010.85 1010.78 1010.74 1010.75
1014.57 1014.94 1015.24 1015.45 1015.55 1015.56 1015.47 1015.30 1015.07 1014.79 1014.50 1014.20 1013.92 1013.67 1013.44 1013.24 1013.05 1012.87 1012.68 1012.47 1012.25 1012.00 1011.74 1011.48 1011.24 1011.02 1010.84 1010.72 1010.65 1010.63 1010.65 1010.70 1010.74 1010.78 1010.78 1010.75 1010.67 1010.56 1010.43 1010.29 1010.16 1010.07 1010.03 1010.05
1015.63 1015.89 1016.06 1016.13 1016.10 1015.97 1015.77 1015.51 1015.20 1014.87 1014.53 1014.20 1013.89 1013.60 1013.33 1013.08 1012.83 1012.59 1012.33 1012.06 1011.78 1011.48 1011.18 1010.89 1010.63 1010.41 1010.24 1010.13 1010.08 1010.08 1010.11 1010.16 1010.21 1010.24 1010.23 1010.19 1010.09 1009.97 1009.82 1009.67 1009.54 1009.45 1009.40 1009.42
1016.28 1016.42 1016.46 1016.39 1016.24 1016.01 1015.73 1015.40 1015.04 1014.67 1014.31 1013.96 1013.63 1013.31 1013.01 1012.72 1012.42 1012.12 1011.81 1011.49 1011.15 1010.82 1010.50 1010.20 1009.94 1009.73 1009.59 1009.50 1009.47 1009.48 1009.53 1009.59 1009.64 1009.67 1009.66 1009.61 1009.51 1009.38 1009.24 1009.09 1008.96 1008.87 1008.83 1008.84
1016.51 1016.52 1016.44 1016.26 1016.01 1015.71 1015.36 1014.99 1014.61 1014.23 1013.87 1013.51 1013.16 1012.83 1012.50 1012.16 1011.82 1011.47 1011.11 1010.75 1010.38 1010.02 1009.69 1009.39 1009.14 1008.95 1008.83 1008.77 1008.76 1008.79 1008.86 1008.92 1008.98 1009.01 1009.00 1008.96 1008.87 1008.75 1008.62 1008.49 1008.38 1008.30 1008.27 1008.28
1016.35 1016.25 1016.06 1015.79 1015.47 1015.12 1014.75 1014.36 1013.98 1013.61 1013.24 1012.88 1012.53 1012.18 1011.82 1011.44 1011.06 1010.66 1010.25 1009.85 1009.45 1009.08 1008.74 1008.45 1008.22 1008.05 1007.94 1007.90 1007.91 1007.96 1008.04 1008.11 1008.17 1008.21 1008.22 1008.18 1008.12 1008.03 1007.93 1007.83 1007.74 1007.69 1007.67 1007.69
1015.93 1015.71 1015.43 1015.10 1014.74 1014.36 1013.98 1013.61 1013.24 1012.87 1012.52 1012.16 1011.79 1011.41 1011.01 1010.60 1010.16 1009.72 1009.27 1008.82 1008.40 1008.00 1007.66 1007.37 1007.15 1007.00 1006.91 1006.89 1006.91 1006.97 1007.05 1007.13 1007.20 1007.25 1007.27 1007.26 1007.22 1007.17 1007.11 1007.06 1007.02 1007.00 1007.02 1007.05
1015.36 1015.05 1014.70 1014.32 1013.94 1013.55 1013.18 1012.81 1012.46 1012.11 1011.75 1011.38 1010.99 1010.58 1010.14 1009.67 1009.18 1008.68 1008.18 1007.69 1007.24 1006.83 1006.47 1006.19 1005.97 1005.83 1005.75 1005.73 1005.77 1005.83 1005.91 1006.00 1006.08 1006.14 1006.18 1006.20 1006.21 1006.21 1006.20 1006.20 1006.21 1006.24 1006.29 1006.36
1014.78 1014.39 1013.99 1013.58 1013.17 1012.78 1012.41 1012.05 1011.70 1011.35 1010.98 1010.58 1010.16 1009.70 1009.20 1008.67 1008.12 1007.57 1007.02 1006.49 1006.00 1005.57 1005.20 1004.91 1004.70 1004.56 1004.49 1004.48 1004.51 1004.58 1004.67 1004.76 1004.86 1004.94 1005.01 1005.07 1005.13 1005.18 1005.23 1005.29 1005.36 1005.44 1005.53 1005.63
1014.27 1013.81 1013.36 1012.92 1012.50 1012.10 1011.71 1011.34 1010.97 1010.59 1010.19 1009.75 1009.27 1008.75 1008.19 1007.60 1006.99 1006.38 1005.78 1005.21 1004.70 1004.25 1003.87 1003.58 1003.37 1003.23 1003.17 1003.17 1003.21 1003.29 1003.39 1003.49 1003.61 1003.72 1003.83 1003.93 1004.04 1004.14 1004.26 1004.38 1004.50 1004.63 1004.77 1004.91
1013.86 1013.35 1012.85 1012.37 1011.92 1011.48 1011.07 1010.66 1010.25 1009.81 1009.35 1008.85 1008.30 1007.71 1007.09 1006.43 1005.77 1005.10 1004.47 1003.87 1003.34 1002.88 1002.51 1002.21 1002.01 1001.89 1001.83 1001.85 1001.91 1002.00 1002.12 1002.25 1002.40 1002.54 1002.69 1002.85 1003.00 1003.17 1003.34 1003.51 1003.70 1003.88 1004.05 1004.22
1013.56 1012.99 1012.44 1011.91 1011.41 1010.92 1010.44 1009.96 1009.48 1008.97 1008.43 1007.85 1007.22 1006.56 1005.87 1005.16 1004.45 1003.75 1003.10 1002.49 1001.95 1001.50 1001.13 1000.85 1000.67 1000.56 1000.53 1000.57 1000.65 1000.77 1000.92 1001.09 1001.27 1001.46 1001.66 1001.86 1002.07 1002.29 1002.51 1002.73 1002.96 1003.18 1003.39 1003.59
1013.31 1012.70 1012.09 1011.49 1010.91 1010.34 1009.78 1009.21 1008.63 1008.03 1007.39 1006.73 1006.03 1005.30 1004.56 1003.81 1003.07 1002.36 1001.70 1001.10 1000.58 1000.14 999.79 999.54 999.38 999.31 999.30 999.37 999.48 999.64 999.83 1000.04 1000.26 1000.50 1000.74 1000.99 1001.25 1001.50 1001.76 1002.02 1002.28 1002.52 1002.76 1002.98
1013.10 1012.42 1011.74 1011.07 1010.40 1009.73 1009.07 1008.39 1007.70 1006.99 1006.27 1005.52 1004.75 1003.98 1003.20 1002.43 1001.69 1000.99 1000.35 999.78 999.28 998.88 998.57 998.35 998.22 998.18 998.20 998.30 998.45 998.64 998.86 999.11 999.37 999.65 999.93 1000.22 1000.51 1000.79 1001.08 1001.36 1001.63 1001.88 1002.13 1002.35
1012.86 1012.12 1011.38 1010.62 1009.86 1009.09 1008.31 1007.52 1006.73 1005.93 1005.12 1004.30 1003.49 1002.69 1001.90 1001.15 1000.43 999.76 999.16 998.63 998.18 997.82 997.54 997.36 997.26 997.23 997.29 997.40 997.57 997.79 998.03 998.31 998.60 998.90 999.21 999.52 999.82 1000.12 1000.41 1000.69 1000.96 1001.21 1001.44 1001.66
Thickness
5476 5488 5490 5490 5494 5497 5497 5504 5507 5524 5529 5532 5532 5532 5531 5531 5530 5529 5528 5528 5528 5526 5524 5523 5522 5521 5519 5517 5515 5513 5510 5507 5505 5502 5500 5497 5494 5491 5488 5485 5482 5479 5476 5473
5459 5473 5478 5481 5487 5491 5495 5500 5505 5511 5514 5522 5523 5522 5521 5518 5518 5515 5514 5514 5514 5513 5511 5508 5507 5506 5505 5503 5502 5500 5497 5494 5492 5490 5487 5484 5481 5479 5476 5472 5470 5467 5465 5463
5447 5456 5458 5457 5473 5481 5485 5492 5495 5495 5500 5504 5504 5505 5506 5506 5505 5503 5501 5500 5499 5497 5495 5494 5492 5492 5490 5489 5488 5486 5483 5482 5480 5477 5474 5471 5469 5467 5463 5461 5458 5456 5454 5452
5433 5440 5439 5454 5467 5474 5476 5475 5478 5481 5485 5488 5488 5488 5489 5490 5489 5488 5488 5486 5484 5482 5481 5479 5479 5478 5477 5476 5474 5472 5470 5468 5466 5464 5461 5459 5456 5454 5452 5449 5447 5445 5443 5443
5423 5429 5436 5447 5452 5456 5458 5456 5461 5466 5469 5471 5474 5473 5471 5474 5474 5472 5471 5471 5469 5468 5467 5466 5465 5464 5463 5461 5459 5458 5456 5455 5453 5451 5449 5446 5444 5442 5440 5438 5436 5434 5434 5433
5416 5422 5426 5432 5440 5447 5449 5440 5449 5452 5454 5456 5460 5453 5451 5456 5457 5457 5456 5456 5454 5453 5453 5451 5450 5450 5448 5446 5445 5444 5443 5442 5440 5438 5436 5434 5432 5431 5429 5427 5426 5425 5425 5424
5404 5408 5411 5417 5428 5437 5428 5425 5435 5439 5440 5440 5439 5437 5437 5440 5440 5440 5440 5440 5439 5439 5437 5436 5436 5435 5434 5432 5431 5431 5430 5429 5428 5426 5424 5423 5421 5420 5418 5417 5416 5415 5415 5415
5395 5397 5397 5405 5414 5411 5409 5417 5420 5422 5423 5423 5422 5424 5424 5424 5423 5423 5423 5424 5423 5422 5421 5421 5422 5421 5419 5417 5418 5418 5418 5417 5415 5414 5413 5412 5410 5409 5407 5406 5406 5405 5406 5406
5384 5386 5391 5395 5397 5400 5403 5403 5405 5406 5407 5407 5407 5407 5408 5407 5406 5406 5407 5407 5407 5407 5406 5406 5406 5406 5404 5404 5405 5405 5405 5404 5403 5402 5401 5399 5398 5397 5396 5395 5395 5396 5396 5396
5375 5378 5382 5384 5385 5387 5389 5389 5391 5392 5392 5393 5392 5392 5392 5391 5391 5391 5391 5391 5392 5392 5391 5391 5391 5391 5391 5392 5392 5392 5392 5391 5391 5390 5389 5388 5387 5386 5385 5384 5384 5385 5385 5385
5365 5365 5368 5372 5372 5373 5375 5376 5376 5377 5378 5377 5378 5378 5377 5376 5376 5376 5377 5377 5377 5377 5376 5377 5377 5378 5378 5379 5379 5379 5379 5379 5378 5378 5377 5376 5376 5375 5375 5375 5374 5375 5375 5375
5352 5354 5355 5356 5359 5362 5361 5361 5361 5362 5363 5364 5364 5364 5363 5362 5362 5363 5363 5363 5363 5363 5363 5363 5364 5364 5365 5365 5366 5366 5366 5366 5366 5365 5365 5365 5365 5365 5366 5366 5367 5367 5368 5368
5341 5343 5344 5346 5347 5348 5348 5348 5349 5349 5350 5350 5350 5350 5350 5349 5349 5349 5350 5350 5349 5349 5350 5350 5351 5351 5352 5352 5353 5353 5353 5353 5353 5353 5353 5353 5354 5355 5356 5358 5358 5359 5359 5360
5330 5332 5332 5333 5333 5334 5335 5336 5336 5336 5336 5337 5337 5337 5337 5336 5336 5336 5335 5336 5337 5338 5338 5338 5339 5339 5340 5340 5341 5341 5341 5341 5342 5341 5342 5342 5343 5344 5346 5348 5349 5349 5350 5351
5318 5319 5320 5321 5322 5322 5323 5324 5323 5322 5322 5323 5323 5323 5324 5323 5323 5323 5324 5325 5326 5326 5326 5327 5327 5327 5328 5328 5329 5329 5329 5330 5331 5331 5332 5333 5334 5335 5337 5338 5339 5340 5341 5343
5306 5309 5310 5311 5311 5311 5311 5311 5310 5310 5311 5311 5312 5312 5312 5312 5312 5312 5312 5313 5313 5314 5315 5315 5316 5317 5317 5318 5318 5319 5319 5321 5322 5322 5323 5324 5325 5327 5328 5329 5330 5331 5332 5334
5296 5296 5297 5298 5299 5299 5299 5300 5300 5299 5299 5300 5300 5301 5301 5301 5302 5301 5302 5302 5303 5304 5305 5305 5306 5307 5307 5307 5308 5308 5309 5310 5312 5313 5314 5315 5316 5317 5318 5319 5321 5322 5323 5326
5287 5287 5287 5288 5288 5289 5289 5290 5290 5290 5290 5290 5290 5291 5290 5290 5290 5291 5291 5292 5293 5294 5295 5296 5297 5298 5298 5298 5299 5299 5300 5301 5302 5303 5304 5306 5307 5309 5310 5312 5313 5315 5317 5319
5279 5280 5280 5281 5281 5280 5280 5281 5281 5281 5281 5281 5281 5281 5281 5281 5281 5282 5282 5282 5283 5284 5286 5287 5289 5290 5290 5290 5291 5291 5292 5293 5294 5295 5296 5298 5299 5301 5303 5304 5306 5308 5311 5313
5271 5272 5272 5273 5273 5272 5272 5273 5272 5272 5272 5272 5273 5273 5272 5272 5273 5273 5273 5274 5275 5276 5278 5279 5280 5281 5282 5282 5284 5284 5284 5285 5286 5288 5289 5290 5292 5294 5296 5298 5300 5303 5305 5308
5261 5263 5263 5263 5264 5265 5265 5264 5264 5264 5265 5265 5265 5265 5264 5265 5265 5266 5266 5267 5269 5270 5271 5273 5273 5274 5275 5276 5277 5277 5278 5279 5280 5280 5282 5284 5286 5288 5290 5292 5295 5298 5301 5303
5253 5254 5255 5255 5256 5256 5256 5257 5257 5257 5257 5257 5257 5257 5257 5258 5258 5259 5260 5260 5262 5264 5265 5265 5266 5267 5269 5270 5270 5270 5271 5272 5273 5274 5276 5278 5280 5283 5285 5288 5290 5294 5297 5300
5246 5247 5248 5248 5248 5248 5249 5250 5250 5250 5250 5251 5251 5251 5252 5252 5252 5253 5254 5255 5256 5258 5258 5259 5260 5262 5263 5263 5263 5264 5265 5267 5268 5269 5271 5273 5275 5278 5281 5284 5287 5290 5293 5296
5240 5241 5242 5242 5242 5243 5243 5244 5245 5246 5246 5246 5247 5247 5247 5247 5247 5247 5248 5249 5251 5252 5253 5253 5255 5257 5257 5257 5257 5259 5260 5262 5263 5265 5267 5269 5272 5275 5278 5281 5284 5288 5291 5294
5235 5235 5236 5237 5238 5239 5240 5241 5241 5242 5243 5243 5243 5243 5243 5243 5242 5243 5243 5244 5246 5247 5248 5249 5251 5252 5252 5252 5253 5255 5256 5258 5260 5262 5264 5267 5270 5273 5276 5279 5283 5286 5290 5293
5230 5231 5232 5233 5234 5235 5236 5237 5238 5239 5239 5239 5239 5239 5239 5239 5239 5240 5241 5241 5242 5244 5244 5245 5246 5247 5248 5249 5251 5252 5254 5256 5258 5260 5262 5265 5268 5272 5275 5279 5282 5285 5289 5292
5227 5229 5229 5231 5232 5232 5233 5233 5233 5234 5235 5235 5235 5236 5236 5237 5237 5238 5239 5240 5240 5241 5242 5243 5244 5245 5246 5248 5249 5251 5253 5254 5256 5259 5261 5264 5267 5271 5274 5278 5281 5285 5288 5292